www.pogodaiklimat.ru

Погода и климат >> Архив погоды >> Боливия >> Магдалена


ПОГОДА в Магдалене

  • Прогноз погоды в Магдалене
  • Монитор погоды в Магдалене

АРХИВ ПОГОДЫ в Магдалене

Время (UTC), дата Ветер
(напр.,м/с)
 
Видим.   Явления Облачность Т
(С)
Тd
(С)
f
(%)
Тe
(С)
Тes
(С)
Комфортность P
(гПа)
Po
(гПа)
Тmin
(С)
Tmax
(С)
R
(мм)
R24
(мм)
S
(см)
12 14.06 штиль 0 15 км 8/0
[Ci]
+23.4 +21.7 90 +32 +34 очень
душно
1013.5 997.2 +21.1
15 14.06 С 3 15 км 4/1 500 м
[Cu hum Ci fib]
+39.6 +23.6 40 +50 +58 опасность
перегрева
1014.7 998.4
18 14.06 С 3 15 км 4/4 500 м
[Cu med, cong]
+32.3 +23.1 58 +42 +48 опасность
перегрева
1013.3 997.0
21 14.06 С 2 15 км 3/3 500 м
[Cu med, cong]
+32.7 +22.7 56 +43 +43 опасность
перегрева
1012.1 995.8 +33.5
12 15.06 штиль 0 15 км 6/0
[Ci]
+23.6 +22.3 92 +31 +33 очень
душно
1013.0 996.6 +21.5
15 15.06 С 2 15 км ясно +30.6 +22.7 63 +40 +53 опасность
солнечного
удара
1014.0 997.6
18 15.06 С 3 15 км 4/4 500 м
[Cu med, cong]
+32.9 +22.0 53 +42 +47 опасность
перегрева
1012.5 996.4
21 15.06 штиль 0 15 км 3/3 500 м
[Cu med, cong]
+32.9 +22.7 55 +43 +43 опасность
перегрева
1011.9 995.8 +34.0
12 16.06 штиль 0 15 км 6/0 2000 м
[Ac trans]
+23.9 +21.9 89 +31 +33 очень
душно
1014.6 998.1 +22.2
15 16.06 СВ 2 15 км 1/0 2000 м
[Ac trans]
+31.3 +23.1 62 +42 +53 опасность
перегрева
1015.8 999.6
18 16.06 штиль 0 15 км 4/4 500 м
[Cu med, cong]
+33.4 +22.1 52 +42 +51 опасность
перегрева
1014.2 998.1
21 16.06 штиль 0 15 км 1/1 500 м
[Cu med, cong]
+33.0 +20.5 48 +40 +41 очень
душно
1012.9 996.8 +34.9
12 17.06 Ю 2 15 км 6/0
[Ci]
+22.3 +21.6 96 +29 +31 очень
душно
1015.8 999.3 +20.7
15 17.06 ЮВ 2 15 км 6/0
[Ci]
+29.2 +22.5 67 +38 +49 очень
душно
1017.2 1000.8
18 17.06 штиль 0 15 км 4/4 500 м
[Cu med, cong]
+32.3 +21.1 52 +40 +49 очень
душно
1015.3 999.1
21 17.06 штиль 0 15 км 4/1 500 м
[Cu hum Ac trans]
+31.7 +22.6 59 +41 +42 опасность
перегрева
1013.9 997.7 +33.4
12 18.06 штиль 0 15 км 6/0
[Ci]
+22.8 +21.7 94 +31 +33 очень
душно
1013.9 997.5 +20.4
15 18.06 штиль 0 15 км 9/0
[Ci]
+29.7 +22.8 67 +40 +53 опасность
солнечного
удара
1014.4 998.1
18 18.06 С 2 15 км 9/4 500 м
[Cu med, cong Ci]
+31.8 +22.4 58 +41 +47 опасность
перегрева
1013.1 996.8
21 18.06 штиль 0 15 км 9/1 500 м
[Cu med, cong Ci]
+30.0 +22.8 65 +40 +40 очень
душно
1012.3 996.0 +33.1
12 19.06 СВ 2 15 км 6/0
[Ci]
+23.0 +21.6 92 +31 +33 очень
душно
1014.7 998.2 +20.1
15 19.06 СВ 2 15 км 6/0
[Ci]
+29.6 +22.1 64 +38 +49 очень
душно
1016.2 999.9
18 19.06 С 2 15 км 5/5 500 м
[Cu med, cong]
+32.2 +20.8 51 +39 +45 очень
душно
1015.2 999.0
21 19.06 штиль 0 15 км 4/1 500 м
[Cu hum Ci fib]
+32.0 +21.4 54 +40 +41 очень
душно
1014.2 998.0 +34.0
12 20.06 Ю 2 15 км 10/4 240 м
[St As op]
+18.4 +17.5 94 +20 +20 1017.1 1000.4 +17.1
15 20.06 Ю 3 15 км 3/0
[Ci fib]
+24.8 +20.3 76 +31 +40 очень
душно
1017.6 991.0
18 20.06 ЮВ 2 15 км 6/1 450 м
[Sc Ci]
+30.0 +21.4 60 +38 +47 очень
душно
1016.4 1000.0

 

Местоположение метеостанции Магдалена (Боливия): широта -13.33 долгота -64.11 высота над уровнем моря 140 м.

В архиве по умолчанию представлена погода в Магдалене за последнюю неделю. Архивные данные за месяц целиком и за предыдущие месяцы, начиная с января 2011 года, Вы можете получить, выбрав интересующий диапазон дат из раскрывающегося списка и нажав кнопку "Ввод!".


*Определитесь, кто Вы:
робот инопланетянин человек

Внимание! Время в таблицах - всемирное. Для получения местного времени необходимо прибавить поправку, которая равна -4 ч.

Смотрите также архив погоды в соседних городах и на ближайших метеорологических станциях:

Погода в Сан-Рамоне (Боливия) (64 км)
Погода в Сан-Хоакине (Боливия) (82 км)
Погода в Бауресе (Боливия) (150 км)
Погода в Санта-Ане (Боливия) (151 км)
Погода в Тринидаде (Боливия) (186 км)
Погода в Сан Игнасио де Moксосе (Боливия) (238 км)
Погода в Ассенсьон де Гуарае (Боливия) (286 км)
Погода в Санта-Розе (Боливия) (316 км)
Погода в Риберальте (Боливия) (338 км)
Погода в Сан-Борхе (Боливия) (342 км)

Пояснения к столбцам:

Ветер - указаны скорость ветра в м/с - средняя за 10 мин, порывы в срок и между сроками (в фигурных скобках) и направление, откуда дует ветер: С - северный, СВ - северо-восточный, В - восточный, ЮВ - юго-восточный, Ю - южный, ЮЗ - юго-западный, З - западный, СЗ - северо-западный.
Видимость - горизонтальная дальность видимости в метрах или километрах. При видимости от 1 до 10 км при отсутствии осадков обычно наблюдается дымка, при ухудшении видимости до 1 км и менее - туман. В сухую погоду видимость может ухудшаться дымом, пылью или мглою.
Явления - указаны атмосферные явления, наблюдавшиеся в срок или в последний час перед сроком; фигурными скобками обозначены явления, наблюдавшиеся между сроками (за 1-3 часа до срока); квадратными скобками обозначены град или гололедные отложения с указанием их диаметра в мм.
Облачность - указаны через наклонную черту общая и нижняя облачность в баллах и высота нижней границы облаков в метрах; квадратными скобками обозначены формы облаков: Ci - перистые, Cs - перисто-слоистые, Cc - перисто-кучевые, Ac - высококучевые, As - высокослоистые, Sc - слоисто-кучевые, Ns - слоисто-дождевые, Cu - кучевые, Cb - кучево-дождевые. Подробнее классификацию облаков см. в Атласе облаков (PDF).
T - Температура воздуха - температура, измеренная на высоте 2 м над землей.
Td - Температура точки росы - температура, при понижении до которой содержащийся в воздухе водяной пар достигнет насыщения.
f - Относительная влажность воздуха - влажноcть воздуха, измеренная на высоте 2 м над землей.
Te - Эффективная температура - температура, которую ощущает одетый по сезону человек в тени. Характеристика душности погоды. При расчете учитывается влияние влажности воздуха и скорости ветра на теплоощущения человека.
Tes - Эффективная температура на солнце - температура, которую ощущает человек, с поправкой на солнечный нагрев. Характеристика знойности погоды. Зависит от высоты солнца над горизонтом, облачности и скорости ветра. Ночью, в пасмурную погоду, а также при ветре 12 м/с и более поправка равна нулю.
P - Атмосферное давление - приведенное к уровню моря атмосферное давление.
Po - Атмосферное давление - измеренное на уровне метеостанции атмосферное давление.
Tmin - Минимальная температура - минимум температуры воздуха на высоте 2 м над землей.
Tmax - Максимальная температура - максимум температуры воздуха на высоте 2 м над землей.
R - Количество осадков - Количество выпавших осадков за период времени, мм. При наведении курсора мыши на число - период времени, за который выпало указанное количество осадков.
R24 - Количество осадков - Количество выпавших осадков за 24 часа, мм.
S - Снежный покров - Высота снежного покрова, см. При наведении курсора мыши на число - состояние снежного покрова и степень покрытия местности в баллах.